Theta_e
314 315 316 317 313 314 315 320 320 323 317 317 323 323 326 320 320 321 323 322 322 322 322 323 323 323 321 320 320 319 317 317 315 319 318 318 318 319 318 313 318 313 312 313
313 316 317 318 312 314 316 321 324 320 316 316 316 324 322 321 320 321 322 322 323 322 323 322 323 322 320 320 318 318 318 318 316 320 320 318 318 317 319 317 311 314 309 313
312 315 317 318 313 314 319 325 318 319 323 326 327 326 322 322 322 322 322 322 322 323 322 322 323 322 320 318 315 315 318 318 316 316 317 315 315 315 315 317 312 315 314 316
311 314 317 317 314 315 321 324 322 317 316 320 323 324 322 323 322 321 322 321 322 322 322 322 322 321 319 318 315 318 317 318 317 316 315 315 315 314 314 314 314 313 313 316
309 313 316 319 315 315 321 324 325 316 319 318 323 321 322 323 322 321 321 321 322 321 321 321 321 320 319 319 317 319 318 316 315 316 316 314 314 313 313 313 314 314 315 315
308 310 314 317 318 319 320 322 321 325 323 321 321 322 323 323 321 321 321 320 318 316 319 319 319 318 318 319 318 319 317 311 310 315 314 313 311 315 316 315 315 315 314 315
307 309 312 315 317 318 323 321 322 323 315 321 322 323 322 322 321 320 321 320 317 318 318 318 318 317 316 317 317 317 313 313 308 307 306 309 317 314 314 315 314 313 315 313
307 308 310 314 315 318 319 319 324 321 309 323 323 322 322 320 321 320 320 319 318 317 318 310 310 308 305 311 315 316 316 309 305 309 310 311 314 315 314 313 313 315 314 313
308 307 308 312 315 315 315 318 323 321 320 318 323 321 320 318 319 318 320 319 318 320 314 305 310 312 313 314 315 312 314 308 306 308 305 305 312 314 314 314 310 315 314 312
309 308 308 310 315 315 316 315 318 322 321 320 321 321 320 321 321 316 320 320 320 321 307 312 311 312 315 314 312 308 305 305 305 311 302 308 312 314 313 312 310 315 314 312
308 308 308 309 312 316 317 315 320 321 321 320 321 321 321 320 321 313 320 315 318 311 310 307 308 309 309 312 313 310 307 306 309 309 307 309 312 313 310 311 315 314 312 311
308 308 308 308 309 315 318 317 316 318 320 318 320 321 321 322 322 320 319 315 320 319 311 307 310 308 311 308 310 313 313 311 309 309 308 310 314 314 313 314 314 312 312 310
307 308 308 308 309 311 317 320 316 317 316 316 316 318 319 319 321 321 319 321 320 319 319 314 312 308 309 308 310 314 313 314 309 312 314 315 314 314 314 314 313 310 310 308
308 308 308 308 308 309 313 315 316 319 317 316 320 318 315 317 320 321 320 318 320 320 319 310 308 306 314 306 309 308 312 314 313 310 314 314 314 314 313 312 311 311 310 307
309 309 308 308 308 309 311 313 316 319 319 314 321 319 318 316 315 317 319 319 318 320 316 306 306 311 311 313 307 307 315 312 309 308 314 314 313 313 312 312 310 309 308 304
310 310 310 309 309 309 311 316 312 315 318 318 309 319 318 317 316 319 318 318 318 318 317 312 315 317 314 308 307 313 315 315 314 313 314 314 313 311 310 309 307 304 304 302
311 311 311 311 310 311 316 317 319 314 316 317 314 317 316 317 318 320 319 319 319 319 319 316 315 316 317 303 310 312 313 312 312 313 313 311 310 309 309 305 304 303 301 298
310 311 311 312 312 313 316 316 315 316 316 316 309 311 314 316 318 318 317 318 318 317 317 316 314 315 313 306 312 314 314 313 313 312 312 310 310 308 306 304 302 299 297 297
310 310 310 311 311 313 314 315 314 315 316 316 311 309 309 314 313 313 313 314 309 313 311 313 313 306 311 311 313 313 313 313 311 310 309 309 307 304 301 299 298 297 297 296
310 310 310 310 311 312 313 314 314 314 315 315 311 312 309 312 310 308 308 309 305 309 306 310 304 309 312 312 312 312 312 312 310 309 307 305 303 301 298 297 297 297 296 295
311 311 311 312 312 312 312 312 309 311 308 312 312 313 309 310 306 305 309 304 304 308 304 307 305 307 306 309 311 311 310 310 309 308 305 303 301 298 297 296 296 294 291 291
310 310 310 312 310 311 308 306 306 306 308 307 309 310 309 309 309 305 304 305 303 308 305 305 306 303 309 309 308 308 306 306 304 302 299 298 298 296 295 294 291 290 290 291
307 306 306 305 301 304 306 307 305 305 302 303 304 303 305 306 306 303 302 306 306 304 306 306 302 307 307 306 305 303 302 300 297 297 297 296 295 294 292 290 289 290 291 291
304 301 302 302 303 301 300 301 300 300 300 301 302 301 303 302 302 300 304 301 301 305 305 300 303 305 305 304 304 303 299 299 297 296 295 294 293 291 289 290 291 291 291 291
300 301 302 301 298 299 299 298 299 299 300 301 301 300 301 300 300 300 300 302 304 304 305 301 301 302 302 303 302 301 300 298 296 294 294 292 290 290 290 291 291 291 291 291
299 299 298 298 300 299 299 300 299 300 300 300 301 300 303 301 301 302 304 304 304 303 300 301 300 302 302 301 300 297 296 295 295 294 293 291 291 291 291 291 291 291 292 292
299 298 298 298 299 299 299 300 300 300 301 300 300 302 300 299 301 302 301 302 301 301 301 299 298 298 296 296 295 294 294 295 294 293 292 291 291 291 291 291 291 292 293 293
Wind_Speed
5 5 11 14 18 23 22 13 0 13 13 4 4 3 3 4 3 4 4 5 6 4 5 6 6 4 5 9 9 3 3 4 3 3 2 2 1 4 5 4 3 1 4 4
5 5 11 14 20 27 24 7 4 13 16 3 3 7 2 4 6 3 1 5 6 5 4 5 9 5 7 10 5 1 3 2 3 4 4 5 2 4 5 6 3 3 4 5
6 6 10 16 24 29 20 3 2 4 10 10 5 4 3 3 7 3 6 5 3 5 4 5 4 4 3 6 4 3 3 3 5 5 2 1 2 4 2 6 3 4 6 6
7 6 9 16 24 27 13 5 4 11 4 5 5 5 8 6 2 1 4 1 4 5 3 5 5 5 4 2 1 2 3 3 4 4 5 4 3 4 5 5 6 6 8 7
8 7 9 14 20 21 13 5 3 14 10 18 3 4 6 9 8 6 4 4 5 8 5 1 5 8 5 4 5 3 4 1 2 2 6 8 4 7 7 7 7 6 3 4
8 8 8 11 16 17 10 4 1 4 3 5 3 3 2 1 9 3 5 8 12 14 8 22 19 21 18 11 4 2 3 4 3 2 4 5 4 4 3 1 1 1 2 1
8 8 8 9 12 12 5 5 2 4 3 2 4 6 5 7 7 6 14 21 10 12 20 20 18 22 19 15 11 7 4 3 3 2 3 2 4 4 1 5 5 6 9 11
9 8 8 8 9 10 7 8 5 4 1 3 3 5 4 18 27 16 20 11 20 19 7 5 4 5 6 5 6 5 5 4 3 3 1 6 6 2 3 4 4 7 7 9
10 9 8 8 8 8 7 10 7 5 8 4 5 4 22 6 4 5 7 15 12 5 5 4 4 4 6 4 3 12 6 6 4 2 4 6 6 4 7 4 3 5 9 7
11 9 8 8 8 7 7 8 8 5 4 6 4 3 7 11 9 5 6 4 3 3 3 2 3 3 2 5 7 3 3 3 5 3 2 7 8 5 6 4 6 4 5 3
12 10 9 8 7 7 8 8 7 6 4 4 6 7 10 16 16 5 11 4 1 3 3 3 3 3 4 2 6 6 7 6 4 3 2 7 11 6 7 5 6 9 7 5
11 10 9 8 8 7 7 8 7 6 4 4 6 7 8 15 13 16 21 6 7 7 4 1 3 1 0 2 3 4 2 7 6 9 7 9 16 12 14 11 4 9 5 2
12 10 9 9 8 8 7 7 7 7 5 5 6 6 6 7 11 16 10 7 8 9 6 6 3 3 3 4 5 1 3 14 3 4 7 10 11 9 10 8 11 10 6 2
13 11 10 9 8 8 8 8 7 6 5 5 2 5 8 9 12 16 11 11 10 17 10 5 3 3 12 4 4 4 6 3 1 3 3 2 8 11 15 12 6 6 4 3
13 12 11 10 9 9 7 5 6 7 3 4 2 5 8 7 10 11 11 11 16 13 5 3 4 5 2 0 2 3 7 5 3 5 5 5 10 11 9 7 5 4 5 6
12 11 10 10 9 9 8 3 6 8 8 4 1 2 1 6 10 8 8 11 10 8 6 5 5 5 7 3 3 7 19 21 19 5 8 8 13 9 6 5 9 10 6 2
11 10 9 9 10 12 8 4 4 11 10 4 3 1 5 7 8 9 9 9 8 7 4 6 4 4 9 3 4 9 13 12 12 10 13 10 9 5 9 10 6 3 5 0
12 9 7 7 9 11 9 5 3 11 8 4 3 2 1 9 5 5 4 4 5 1 2 5 4 3 2 3 10 18 23 22 15 16 11 9 9 11 13 7 7 4 1 5
11 9 5 4 5 6 7 6 2 9 5 4 4 5 4 9 4 4 4 2 1 1 1 5 3 2 5 7 13 15 15 19 19 16 9 13 16 14 12 8 4 2 5 10
15 11 5 3 6 5 6 3 2 4 6 6 5 7 2 8 5 3 5 1 2 2 3 2 2 4 19 16 12 7 10 14 24 20 16 17 15 12 6 3 3 7 11 15
18 8 6 9 12 8 6 4 3 3 2 6 8 17 6 9 4 3 5 3 1 2 4 5 3 4 7 12 20 9 13 13 11 13 17 16 14 10 5 5 8 12 16 17
13 8 12 11 5 4 3 3 0 2 3 1 3 3 6 7 5 5 7 3 2 5 9 2 3 3 4 10 15 14 13 16 16 16 16 12 6 3 4 8 13 15 15 16
11 4 4 3 2 2 3 5 1 1 3 1 1 3 4 5 4 4 3 6 5 8 3 3 3 4 14 19 20 21 19 20 16 11 7 4 1 5 11 15 15 14 15 16
4 3 3 2 2 2 1 1 0 1 3 2 4 4 3 3 2 3 4 1 3 3 3 4 1 12 16 16 13 16 15 9 9 4 1 4 11 15 15 14 14 15 17 18
4 3 3 2 3 3 2 1 2 2 4 6 4 4 3 2 2 1 3 1 2 1 1 2 7 10 12 13 10 11 11 7 4 3 6 13 15 14 15 14 15 17 20 20
3 3 4 5 3 2 3 6 6 5 5 5 4 2 2 2 1 1 0 3 1 2 2 9 9 8 6 6 6 5 2 3 7 10 14 15 14 15 17 18 18 17 16 15
3 2 4 4 4 4 4 4 4 4 1 1 2 3 1 0 1 1 2 2 2 6 8 11 9 8 8 5 2 3 8 10 12 14 16 17 17 17 18 18 17 17 17 18
Wind_Direction
185 162 174 176 175 171 169 176 106 185 178 143 203 227 243 90 77 323 22 31 66 107 69 54 74 93 61 3 340 67 13 128 70 115 84 351 346 82 91 107 318 52 143 273
173 153 171 173 171 171 173 183 176 177 174 147 278 277 63 107 162 227 65 38 48 41 82 85 105 87 39 24 44 91 351 35 60 13 5 321 45 109 113 110 100 186 125 261
166 149 169 174 174 175 181 202 96 141 200 239 213 191 133 73 32 58 63 95 69 78 71 69 117 108 79 58 62 58 32 82 142 173 171 131 359 335 142 132 117 210 203 250
162 149 163 175 179 184 194 236 181 168 209 274 248 165 164 139 110 40 113 141 179 141 138 126 104 101 145 117 182 18 76 98 36 353 337 329 327 311 312 287 230 158 246 230
161 155 152 174 186 191 208 301 63 173 179 217 258 160 186 159 189 139 223 168 180 110 74 41 160 144 167 170 215 165 26 186 76 324 36 16 313 297 285 279 290 301 11 79
160 159 146 162 186 195 200 221 30 149 32 189 96 223 146 180 115 53 287 109 89 77 85 77 67 80 72 78 120 91 80 119 77 248 358 353 3 247 274 356 9 95 324 131
159 161 156 145 170 182 181 146 111 97 284 97 185 158 207 132 113 111 65 119 99 121 117 101 77 67 62 66 38 115 116 85 87 212 16 41 231 333 16 109 52 9 81 78
160 163 161 153 156 176 184 186 147 139 208 232 278 189 138 100 85 72 68 76 130 140 86 67 54 358 20 347 36 53 115 110 75 116 219 299 325 69 89 97 308 58 92 72
169 165 165 160 157 168 171 168 151 149 124 253 245 158 139 129 103 40 67 114 142 128 74 79 144 190 194 167 122 32 44 88 107 93 137 210 227 121 94 58 264 77 95 67
178 174 169 164 159 158 150 156 162 146 105 37 30 130 136 129 110 107 116 123 97 91 77 100 151 243 190 162 168 191 47 351 143 173 212 284 252 167 112 106 232 140 129 99
183 182 178 173 170 157 150 128 147 153 121 125 114 127 127 147 134 130 158 90 230 62 86 133 215 156 235 132 175 173 165 153 195 193 195 271 225 129 153 184 150 166 139 131
187 186 187 185 177 164 148 132 136 144 134 151 146 113 119 158 161 162 167 175 156 156 102 168 134 131 17 125 225 175 176 185 181 179 211 228 188 211 208 218 204 172 195 172
190 188 188 191 187 171 175 141 135 146 115 112 156 173 167 148 163 180 157 179 167 175 159 129 150 194 139 169 239 234 272 193 193 115 237 232 191 183 189 198 161 138 140 292
192 190 189 190 190 183 191 176 157 152 121 112 187 183 205 187 171 180 198 187 172 173 168 119 150 177 192 209 225 165 216 337 210 253 260 100 114 149 154 155 173 213 216 178
194 193 189 189 188 184 190 178 173 169 155 157 120 192 232 213 194 201 200 197 192 177 143 115 208 219 137 236 98 240 218 200 170 237 235 193 151 161 177 196 217 191 183 166
191 192 192 188 185 176 162 133 200 190 180 154 87 184 269 220 189 173 185 191 194 187 178 190 209 220 201 158 220 236 236 249 262 214 162 176 162 163 199 174 151 151 158 123
185 188 187 188 183 175 162 159 169 186 179 168 84 254 194 182 168 179 184 199 210 212 193 194 202 224 210 159 216 226 237 246 240 211 171 151 177 169 162 161 160 165 128 178
188 182 181 181 181 176 170 145 136 169 171 178 124 227 307 172 163 159 201 195 200 165 195 159 203 238 241 246 231 241 247 244 227 188 186 161 153 154 157 152 160 149 3 309
186 176 165 168 164 170 201 212 196 188 197 166 145 156 212 169 129 141 144 191 43 256 212 193 200 193 221 229 231 236 234 228 184 169 150 146 148 141 138 149 141 206 278 288
180 170 152 151 175 148 165 191 229 214 207 200 171 182 182 166 149 110 128 172 217 219 237 198 206 252 250 246 248 269 245 198 172 152 150 159 136 141 147 162 237 274 292 300
175 170 162 157 167 157 174 197 169 191 286 212 194 190 147 168 129 162 200 181 179 236 233 178 241 258 242 247 239 205 154 148 152 157 149 157 154 152 189 255 281 296 305 309
174 158 137 154 170 163 149 184 219 172 229 52 173 121 126 137 140 122 174 163 138 237 144 169 256 276 297 186 145 131 136 128 121 128 134 135 148 194 272 299 306 308 306 308
118 95 106 78 44 140 195 191 225 36 14 30 130 62 112 131 154 117 154 182 211 139 175 223 223 91 107 114 118 118 125 128 126 129 130 130 189 311 320 319 317 312 308 313
98 88 80 30 111 57 33 328 51 333 323 227 160 110 139 121 124 141 177 191 117 206 204 226 61 80 102 122 133 134 131 145 148 139 207 328 328 321 317 315 314 310 310 313
81 88 90 89 128 82 33 179 128 137 132 140 89 63 85 56 98 1 101 132 228 269 52 52 90 113 125 143 158 155 168 181 215 271 307 318 318 313 311 313 311 312 312 311
67 74 103 138 127 98 87 89 88 100 85 78 77 92 88 45 42 222 329 159 50 63 103 144 152 167 182 184 179 159 182 271 283 293 306 312 312 313 313 314 316 319 314 309
74 88 103 133 107 118 106 93 92 98 54 68 51 59 85 270 41 46 14 66 148 195 177 186 195 179 151 149 168 286 292 290 295 299 303 308 311 312 312 312 318 316 313 307